Weather History for KELO - December, 2012

Change the Weather History Date:

Monday, December 3, 2012

  Actual Average Record
Temperature  
Mean Temperature 35 °F -  
Max Temperature 44 °F 27 °F 51 °F (1998)
Min Temperature 26 °F 13 °F -16 °F (2002)
Degree Days  
Heating Degree Days 30    
Moisture  
Dew Point 36 °F    
Average Humidity 88    
Maximum Humidity 100    
Minimum Humidity 69    
Precipitation  
Precipitation 0.00 in - - ()
Sea Level Pressure  
Sea Level Pressure 29.54 in    
Wind  
Wind Speed 12 mph (SSW)    
Max Wind Speed 22 mph    
Max Gust Speed 36 mph    
Visibility 7 miles    
Events Rain    
Averages and records for this station are not official NWS values.
T = Trace of Precipitation, MM = Missing Value Source: NWS Daily Summary

Daily Weather History Graph

Daily Weather History Graph

Search for Another Location

Airport or City:

Trip Planner

Search our weather history database for the weather conditions in past years. The results will help you decide how hot, cold, wet, or windy it might be!

Date:

Astronomy

Dec. 03, 2012 Rise Set
Actual Time 7:38 AM CST 4:16 PM CST
Civil Twilight 7:02 AM CST 4:51 PM CST
Nautical Twilight 6:23 AM CST 5:30 PM CST
Astronomical Twilight 5:46 AM CST 6:07 PM CST
Moon 9:15 PM CST (12/3) 10:51 AM CST (12/3)
Length of Visible Light 9h 48m
Length of Day
8h 37m
Waning Gibbous, 78% of the Moon is Illuminated
Dec 3
Waning Gibbous
Dec 6
Last Quarter
Dec 13
New
Dec 19
First Quarter
Dec 28
Full

Hourly Weather History & Observations

Time (CST) Temp. Windchill Dew Point Humidity Pressure Visibility Wind Dir Wind Speed Gust Speed Precip Events Conditions
12:13 AM 37.4 °F 32.1 °F 33.8 °F 87% 29.71 in 10.0 mi South 6.9 mph - N/A   Clear
12:33 AM 37.4 °F 29.8 °F 35.6 °F 93% 29.71 in 10.0 mi South 11.5 mph - N/A   Clear
12:52 AM 37.4 °F 31.4 °F 35.6 °F 93% 29.70 in 10.0 mi South 8.1 mph - N/A   Clear
1:13 AM 39.2 °F 32.0 °F 35.6 °F 87% 29.69 in 10.0 mi South 11.5 mph 16.1 mph N/A   Clear
1:33 AM 37.4 °F 29.8 °F 35.6 °F 93% 29.68 in 10.0 mi South 11.5 mph 17.3 mph N/A   Clear
1:53 AM 39.2 °F 31.6 °F 35.6 °F 87% 29.66 in 10.0 mi South 12.7 mph 20.7 mph N/A   Clear
2:13 AM 39.2 °F 31.2 °F 35.6 °F 87% 29.65 in 10.0 mi South 13.8 mph 20.7 mph N/A   Clear
2:33 AM 39.2 °F 31.2 °F 35.6 °F 87% 29.65 in 10.0 mi South 13.8 mph 23.0 mph N/A   Clear
2:53 AM 39.2 °F 31.2 °F 35.6 °F 87% 29.64 in 10.0 mi South 13.8 mph 19.6 mph N/A   Clear
3:13 AM 39.2 °F 30.8 °F 35.6 °F 87% 29.62 in 10.0 mi South 15.0 mph 21.9 mph N/A   Clear
3:33 AM 39.2 °F 30.8 °F 35.6 °F 87% 29.61 in 7.0 mi South 15.0 mph 24.2 mph N/A   Clear
3:53 AM 39.2 °F 31.6 °F 35.6 °F 87% 29.60 in 7.0 mi South 12.7 mph 23.0 mph N/A   Clear
4:13 AM 39.2 °F 30.8 °F 35.6 °F 87% 29.59 in 7.0 mi South 15.0 mph 23.0 mph N/A   Clear
4:33 AM 39.2 °F 30.2 °F 35.6 °F 87% 29.58 in 7.0 mi South 17.3 mph 24.2 mph N/A   Clear
4:53 AM 39.2 °F 30.5 °F 35.6 °F 87% 29.57 in 7.0 mi South 16.1 mph 23.0 mph N/A   Clear
5:13 AM 39.2 °F 30.8 °F 35.6 °F 87% 29.58 in 7.0 mi South 15.0 mph 28.8 mph N/A   Clear
5:33 AM 39.2 °F 31.2 °F 35.6 °F 87% 29.57 in 7.0 mi South 13.8 mph 19.6 mph N/A   Scattered Clouds
5:53 AM 39.2 °F 30.8 °F 35.6 °F 87% 29.56 in 7.0 mi SSE 15.0 mph 20.7 mph N/A   Scattered Clouds
6:13 AM 39.2 °F 30.5 °F 37.4 °F 93% 29.56 in 7.0 mi South 16.1 mph 21.9 mph N/A   Scattered Clouds
6:33 AM 39.2 °F 32.5 °F 37.4 °F 93% 29.55 in 5.0 mi South 10.4 mph 20.7 mph N/A   Scattered Clouds
6:53 AM 39.2 °F 32.5 °F 37.4 °F 93% 29.55 in 5.0 mi South 10.4 mph 20.7 mph N/A   Mostly Cloudy
7:13 AM 39.2 °F 32.0 °F 37.4 °F 93% 29.55 in 5.0 mi South 11.5 mph 17.3 mph N/A   Mostly Cloudy
7:33 AM 39.2 °F 32.5 °F 37.4 °F 93% 29.54 in 5.0 mi South 10.4 mph 17.3 mph N/A   Overcast
7:53 AM 39.2 °F 31.2 °F 37.4 °F 93% 29.54 in 5.0 mi South 13.8 mph 20.7 mph N/A   Overcast
8:13 AM 39.2 °F 31.6 °F 37.4 °F 93% 29.53 in 4.0 mi South 12.7 mph 23.0 mph N/A   Overcast
8:33 AM 39.2 °F 32.0 °F 37.4 °F 93% 29.51 in 3.0 mi South 11.5 mph 19.6 mph N/A   Overcast
8:53 AM 39.2 °F 32.5 °F 39.2 °F 100% 29.50 in 1.8 mi South 10.4 mph - N/A   Overcast
9:13 AM 41.0 °F 34.3 °F 39.2 °F 93% 29.49 in 1.8 mi South 11.5 mph 16.1 mph N/A   Overcast
9:33 AM 41.0 °F 34.7 °F 39.2 °F 93% 29.49 in 1.5 mi South 10.4 mph 16.1 mph N/A   Overcast
9:53 AM 42.8 °F 35.8 °F 41.0 °F 93% 29.49 in 1.2 mi South 13.8 mph - N/A   Overcast
10:13 AM 42.8 °F 36.6 °F 41.0 °F 93% 29.49 in 1.5 mi South 11.5 mph 19.6 mph N/A   Overcast
10:33 AM 42.8 °F 36.2 °F 41.0 °F 93% 29.48 in 1.2 mi South 12.7 mph 18.4 mph N/A   Overcast
10:53 AM 42.8 °F 37.0 °F 41.0 °F 93% 29.48 in 1.2 mi South 10.4 mph - N/A   Overcast
11:13 AM 42.8 °F 36.2 °F 41.0 °F 93% 29.46 in 1.8 mi SSE 12.7 mph 18.4 mph N/A   Overcast
11:33 AM 42.8 °F 35.8 °F 42.8 °F 100% 29.45 in 2.5 mi South 13.8 mph 19.6 mph N/A   Overcast
11:53 AM 44.6 °F 38.1 °F 42.8 °F 93% 29.45 in 3.0 mi South 13.8 mph 17.3 mph N/A   Overcast
12:13 PM 44.6 °F 39.2 °F 42.8 °F 93% 29.44 in 2.5 mi South 10.4 mph 18.4 mph N/A Rain Rain
12:33 PM 44.6 °F 40.2 °F 42.8 °F 93% 29.43 in 2.5 mi South 8.1 mph - N/A Rain Light Rain
12:53 PM 44.6 °F 39.7 °F 42.8 °F 93% 29.43 in 2.5 mi South 9.2 mph - N/A   Drizzle
1:13 PM 44.6 °F 40.7 °F 42.8 °F 93% 29.42 in 3.0 mi SSW 6.9 mph - N/A   Light Drizzle
1:33 PM 44.6 °F 39.7 °F 42.8 °F 93% 29.42 in 3.0 mi South 9.2 mph - N/A   Overcast
1:53 PM 44.6 °F 39.7 °F 42.8 °F 93% 29.41 in 3.0 mi SSW 9.2 mph - N/A   Drizzle
2:13 PM 44.6 °F 40.7 °F 42.8 °F 93% 29.41 in 3.0 mi SSW 6.9 mph - N/A Rain Rain
2:30 PM 44.6 °F 40.2 °F 42.8 °F 93% 29.40 in 2.5 mi SW 8.1 mph - N/A   Drizzle
2:53 PM 44.6 °F 40.2 °F 42.8 °F 93% 29.42 in 3.0 mi SW 8.1 mph - N/A   Mostly Cloudy
3:13 PM 44.6 °F 38.8 °F 42.8 °F 93% 29.43 in 2.0 mi WSW 11.5 mph 16.1 mph N/A Rain Light Rain
3:33 PM 44.6 °F 38.8 °F 42.8 °F 93% 29.44 in 3.0 mi WSW 11.5 mph - N/A Rain Rain
3:53 PM 42.8 °F 36.6 °F 41.0 °F 93% 29.45 in 4.0 mi West 11.5 mph 23.0 mph N/A Rain Light Rain
4:13 PM 42.8 °F 36.2 °F 39.2 °F 87% 29.46 in 7.0 mi West 12.7 mph 20.7 mph N/A   Light Drizzle
4:33 PM 42.8 °F 37.0 °F 39.2 °F 87% 29.47 in 10.0 mi West 10.4 mph 17.3 mph N/A   Overcast
4:53 PM 39.2 °F 29.3 °F 37.4 °F 93% 29.49 in 10.0 mi West 20.7 mph 31.1 mph N/A   Overcast
5:13 PM 39.2 °F 31.2 °F 37.4 °F 93% 29.50 in 10.0 mi West 13.8 mph 20.7 mph N/A   Overcast
5:33 PM 39.2 °F 32.0 °F 37.4 °F 93% 29.51 in 10.0 mi WSW 11.5 mph 23.0 mph N/A   Overcast
5:53 PM 39.2 °F 32.0 °F 35.6 °F 87% 29.51 in 10.0 mi WSW 11.5 mph 21.9 mph N/A   Overcast
6:13 PM 39.2 °F 30.8 °F 35.6 °F 87% 29.52 in 10.0 mi West 15.0 mph 21.9 mph N/A   Overcast
6:33 PM 39.2 °F 31.6 °F 35.6 °F 87% 29.52 in 10.0 mi WSW 12.7 mph 18.4 mph N/A   Overcast
6:53 PM 37.4 °F 27.8 °F 33.8 °F 87% 29.53 in 10.0 mi WSW 17.3 mph - N/A   Overcast
7:13 PM 37.4 °F 28.5 °F 32.0 °F 81% 29.55 in 10.0 mi WSW 15.0 mph 24.2 mph N/A   Overcast
7:33 PM 37.4 °F 28.9 °F 32.0 °F 81% 29.56 in 10.0 mi West 13.8 mph 24.2 mph N/A   Overcast
7:53 PM 37.4 °F 30.3 °F 32.0 °F 81% 29.55 in 10.0 mi West 10.4 mph 21.9 mph N/A   Overcast
8:12 PM 37.4 °F 27.5 °F 28.4 °F 70% 29.56 in 10.0 mi West 18.4 mph 29.9 mph N/A   Mostly Cloudy
8:33 PM 35.6 °F 27.1 °F 28.4 °F 75% 29.56 in 10.0 mi West 12.7 mph 19.6 mph N/A   Overcast
8:53 PM 35.6 °F 25.2 °F 28.4 °F 75% 29.55 in 10.0 mi West 18.4 mph 29.9 mph N/A   Scattered Clouds
9:12 PM 35.6 °F 25.9 °F 28.4 °F 75% 29.56 in 10.0 mi West 16.1 mph 27.6 mph N/A   Scattered Clouds
9:33 PM 35.6 °F 25.9 °F 28.4 °F 75% 29.56 in 10.0 mi West 16.1 mph 26.5 mph N/A   Overcast
9:53 PM 35.6 °F 24.2 °F 26.6 °F 70% 29.58 in 10.0 mi West 21.9 mph 32.2 mph N/A   Overcast
10:13 PM 33.8 °F 23.5 °F 24.8 °F 70% 29.59 in 10.0 mi West 16.1 mph 28.8 mph N/A   Mostly Cloudy
10:33 PM 32.0 °F 21.2 °F 23.0 °F 69% 29.60 in 10.0 mi West 16.1 mph 32.2 mph N/A   Scattered Clouds
10:53 PM 30.2 °F 19.8 °F 23.0 °F 75% 29.61 in 10.0 mi West 13.8 mph 35.7 mph N/A   Mostly Cloudy
11:13 PM 28.4 °F 17.5 °F 21.2 °F 74% 29.62 in 10.0 mi West 13.8 mph 27.6 mph N/A   Scattered Clouds
11:33 PM 26.6 °F 14.3 °F 19.4 °F 74% 29.64 in 10.0 mi West 16.1 mph 25.3 mph N/A   Clear
11:53 PM 26.6 °F 12.4 °F 17.6 °F 69% 29.65 in 10.0 mi West 21.9 mph 31.1 mph N/A   Mostly Cloudy